Regional Weather Roundup
Issued by NWS Midland/Odessa, TX

Home | Current Version | Previous Version | Text Only | Print | Product List | Glossary On
Versions: 1 2 3 4 5 6 7 8 9 10 11 12 13 14 15 16 17 18 19 20 21 22 23 24 25 26 27 28 29 30 31 32 33 34 35 36 37 38 39 40 41 42 43 44 45 46 47 48 49 50
000
ASUS44 KMAF 191410
RWRMAF
MIDLAND AREA WEATHER ROUNDUP
NATIONAL WEATHER SERVICE MIDLAND TX
800 AM CST SUN NOV 19 2017

...IN SOUTHWEST TEXAS AND SOUTHEAST NEW MEXICO...

CITY           SKY/WX    TMP DP  RH WIND       PRES   REMARKS
ALPINE         MOCLDY    31  18  59 CALM      30.40R
ANDREWS        FAIR      30  22  70 CALM      30.37R
ARTESIA        CLOUDY    30  16  55 CALM      30.34S
BIG SPRING     CLOUDY    31  24  74 SE7       30.40R WCI  24
CARLSBAD       CLOUDY    32  21  64 SE7       30.33S WCI  26
DRYDEN           N/A     44  28  53 N6        30.37R
FORT STOCKTON  CLOUDY    36  24  62 SE7       30.36S WCI  30
GUAD PASS      CLOUDY    35  15  44 NE18      30.31R WCI  24
HOBBS          CLEAR     30  16  55 SW6       30.35R WCI  24
LAMESA         FAIR      30  21  69 CALM      30.36R
MARFA          CLOUDY    29  16  58 CALM      30.36R
MIDLAND AIRPK  CLOUDY    33  24  70 CALM      30.38R
MIDLAND INTL   CLOUDY    32  22  66 CALM      30.37R
ODESSA         CLOUDY    31  21  66 CALM      30.37R
PECOS          PTCLDY    29  19  64 CALM      30.37S
PRESIDIO       FAIR      48  23  36 NE6       30.35R
SEMINOLE       CLOUDY    28  21  75 CALM      30.37R
SNYDER         CLOUDY    36  20  53 CALM      30.37S
WINK           CLOUDY    27  20  75 N5        30.36R WCI  22
$$
...OTHER STATIONS IN TEXAS...

CITY           SKY/WX    TMP DP  RH WIND       PRES   REMARKS
ABILENE        CLOUDY    31  30  96 SE5       30.39R WCI  26
AMARILLO       CLOUDY    27  16  63 S10       30.31F WCI  17
AUSTIN         MOSUNNY   50  36  58 NW5       30.37R
BROWNSVILLE    SUNNY     59  43  55 N17G25    30.27R
CORPUS CHRISTI MOSUNNY   52  38  58 N16G24    30.33R
DALLAS FTW     CLEAR     45  35  68 NW6       30.36R
DEL RIO        CLOUDY    41  35  79 CALM      30.41R
EL PASO        MOCLDY    42  17  36 N6        30.30R WCI  38
HOUSTON INT    MOSUNNY   50  39  66 N9        30.32R
LUBBOCK        CLOUDY    27  15  61 NW5       30.34R WCI  22
SAN ANGELO     CLOUDY    32  28  85 W5        30.40R WCI  27
SAN ANTONIO    MOSUNNY   47  33  58 NW7       30.38R
WACO           SUNNY     44  35  70 N9        30.38R WCI  39
WICHITA FALLS  CLEAR     29  25  85 CALM      30.30R
$$
...OTHER LOCATIONS IN NEW MEXICO...

CITY           SKY/WX    TMP DP  RH WIND       PRES   REMARKS
ALAMOGORDO     CLOUDY    32  18  55 N3        30.32S
ALBUQUERQUE    CLOUDY    30   8  39 N9        30.32S WCI  22
CANNON AFB     CLOUDY    29  13  50 CALM      30.32S
CLOVIS         CLOUDY    23  13  65 SW9       30.32F WCI  13
HOLLOMAN AFB   CLOUDY    30  16  56 N8        30.34S WCI  22
ROSWELL        CLOUDY    26  16  65 S3        30.33R
RUIDOSO        CLOUDY    30  12  47 W6        30.32S WCI  24
SANTA FE       CLOUDY    21  11  65 N10       30.31S WCI  10
TRUTH OR CONSE CLEAR     32   4  30 NW7       30.30S WCI  26
TUCUMCARI      CLOUDY    32  15  49 SW9       30.26S WCI  24
$$




USA.gov is the U.S. government's official web portal to all federal, state and local government web resources and services.